{"data":{"norad_id":65910,"intl_designator":"2025-225A","name":"STARLINK-35523","alt_names":[],"object_type":"PAYLOAD","status":"ACTIVE","operator":null,"country":"US","launch_date":"2025-10-08","launch_site_code":"AFWTR","launch_vehicle":null,"mission":null,"orbit_class":"UNKNOWN","rcs_meters":null,"size_class":null,"mass_kg":null,"dimensions":null,"purposes":["comms"],"wikipedia_slug":null,"has_3d_model":false,"image_url":null,"decayed_at":null,"tle_current":{"epoch":"2026-05-24T08:57:46.384128Z","epoch_age_seconds":125870,"freshness":"FRESH","line1":"1 65910U 25225A   26144.37345352  .00005621  00000+0  20184-3 0  9997","line2":"2 65910  53.1579 174.2798 0001011  87.4844 272.6273 15.30188510 35996","mean_motion":15.3018851,"eccentricity":0.0001011,"inclination_deg":53.1579,"raan_deg":174.2798,"arg_perigee_deg":87.4844,"mean_anomaly_deg":272.6273,"bstar":0.00020184,"rev_number":3599,"period_min":94.106052332075,"perigee_km":474.55649934023,"apogee_km":475.9422540656,"semimajor_km":6853.3863767029,"source":"CELESTRAK","updated_at":"2026-05-25T13:38:20.985571Z"}}}